TimeMST,TemperatureF,Dew PointF,Humidity,Sea Level PressureIn,VisibilityMPH,Wind Direction,Wind SpeedMPH,Gust SpeedMPH,PrecipitationIn,Events,Conditions,WindDirDegrees,DateUTC
12:15 AM,60.8,55.4,82,30.32,10.0,South,10.4,-,N/A,,Mostly Cloudy,190,2013-07-17 07:15:00
12:35 AM,59.0,55.4,88,30.32,10.0,South,10.4,-,N/A,,Mostly Cloudy,190,2013-07-17 07:35:00
12:55 AM,59.0,55.4,88,30.32,10.0,SW,8.1,-,N/A,,Scattered Clouds,220,2013-07-17 07:55:00
1:15 AM,59.0,55.4,88,30.32,10.0,South,9.2,-,N/A,,Scattered Clouds,190,2013-07-17 08:15:00
1:35 AM,59.0,55.4,88,30.32,10.0,South,9.2,-,N/A,,Mostly Cloudy,180,2013-07-17 08:35:00
1:55 AM,59.0,55.4,88,30.32,10.0,South,6.9,-,N/A,,Mostly Cloudy,180,2013-07-17 08:55:00
2:15 AM,57.2,55.4,94,30.32,10.0,South,6.9,-,N/A,,Partly Cloudy,190,2013-07-17 09:15:00
2:35 AM,57.2,55.4,94,30.32,10.0,South,8.1,-,N/A,,Clear,180,2013-07-17 09:35:00
2:55 AM,57.2,55.4,94,30.32,10.0,South,5.8,-,N/A,,Mostly Cloudy,190,2013-07-17 09:55:00
3:15 AM,57.2,55.4,94,30.32,10.0,South,5.8,-,N/A,,Overcast,170,2013-07-17 10:15:00
3:35 AM,57.2,55.4,94,30.32,10.0,South,5.8,-,N/A,,Scattered Clouds,180,2013-07-17 10:35:00
3:55 AM,57.2,55.4,94,30.32,10.0,South,5.8,-,N/A,,Clear,190,2013-07-17 10:55:00
4:15 AM,57.2,55.4,94,30.32,10.0,Calm,Calm,-,N/A,,Clear,0,2013-07-17 11:15:00
4:55 AM,57.2,53.6,88,30.32,10.0,SE,3.5,-,N/A,,Clear,140,2013-07-17 11:55:00
5:15 AM,55.4,53.6,94,30.32,9.0,SE,3.5,-,N/A,,Clear,130,2013-07-17 12:15:00
5:35 AM,55.4,53.6,94,30.33,10.0,SE,3.5,-,N/A,,Clear,140,2013-07-17 12:35:00
5:55 AM,57.2,53.6,88,30.33,10.0,SE,4.6,-,N/A,,Scattered Clouds,140,2013-07-17 12:55:00
6:55 AM,64.4,50.0,59,30.36,10.0,East,3.5,-,N/A,,Scattered Clouds,100,2013-07-17 13:55:00
7:15 AM,64.4,51.8,64,30.36,10.0,SE,4.6,-,N/A,,Clear,130,2013-07-17 14:15:00
7:35 AM,64.4,50.0,59,30.37,10.0,SW,5.8,-,N/A,,Clear,230,2013-07-17 14:35:00
7:55 AM,64.4,50.0,59,30.37,10.0,WSW,5.8,-,N/A,,Clear,240,2013-07-17 14:55:00
8:15 AM,66.2,48.2,52,30.37,10.0,SW,5.8,-,N/A,,Partly Cloudy,220,2013-07-17 15:15:00
8:35 AM,68.0,48.2,49,30.38,10.0,SW,5.8,-,N/A,,Partly Cloudy,220,2013-07-17 15:35:00
8:55 AM,68.0,50.0,52,30.38,10.0,South,5.8,-,N/A,,Clear,190,2013-07-17 15:55:00
9:15 AM,68.0,50.0,52,30.37,10.0,South,5.8,-,N/A,,Clear,190,2013-07-17 16:15:00
9:35 AM,68.0,50.0,52,30.37,10.0,SSW,5.8,-,N/A,,Partly Cloudy,200,2013-07-17 16:35:00
9:55 AM,68.0,50.0,52,30.38,10.0,SSW,5.8,-,N/A,,Partly Cloudy,200,2013-07-17 16:55:00
10:15 AM,68.0,50.0,52,30.38,10.0,South,6.9,-,N/A,,Scattered Clouds,190,2013-07-17 17:15:00
10:35 AM,69.8,48.2,46,30.39,10.0,Calm,Calm,-,N/A,,Scattered Clouds,0,2013-07-17 17:35:00
11:35 AM,66.2,55.4,68,30.38,10.0,ESE,12.7,-,N/A,,Mostly Cloudy,110,2013-07-17 18:35:00
11:55 AM,62.6,57.2,82,30.39,3.0,East,10.4,-,N/A,Rain,Light Rain,100,2013-07-17 18:55:00
12:15 PM,62.6,57.2,82,30.38,9.0,ESE,5.8,-,N/A,,Mostly Cloudy,120,2013-07-17 19:15:00
12:35 PM,66.2,53.6,64,30.37,10.0,SSE,4.6,-,N/A,,Mostly Cloudy,160,2013-07-17 19:35:00
12:55 PM,66.2,53.6,64,30.37,10.0,SSE,4.6,-,N/A,,Mostly Cloudy,160,2013-07-17 19:55:00
1:15 PM,68.0,53.6,60,30.36,10.0,SSW,4.6,-,N/A,,Overcast,200,2013-07-17 20:15:00
1:35 PM,68.0,53.6,60,30.35,10.0,SSE,4.6,-,N/A,,Scattered Clouds,150,2013-07-17 20:35:00
1:55 PM,68.0,51.8,56,30.34,10.0,SSE,4.6,-,N/A,,Mostly Cloudy,160,2013-07-17 20:55:00
2:15 PM,68.0,51.8,56,30.34,10.0,South,4.6,-,N/A,,Overcast,180,2013-07-17 21:15:00
2:35 PM,69.8,51.8,53,30.33,10.0,South,4.6,-,N/A,,Scattered Clouds,180,2013-07-17 21:35:00
2:55 PM,71.6,50.0,46,30.32,10.0,West,4.6,-,N/A,,Partly Cloudy,270,2013-07-17 21:55:00
3:15 PM,73.4,50.0,44,30.32,10.0,WNW,4.6,-,N/A,,Partly Cloudy,300,2013-07-17 22:15:00
3:35 PM,73.4,48.2,41,30.31,10.0,Calm,Calm,-,N/A,,Clear,0,2013-07-17 22:35:00
3:55 PM,73.4,48.2,41,30.30,10.0,NNW,4.6,-,N/A,,Clear,330,2013-07-17 22:55:00
4:15 PM,75.2,50.0,41,30.30,10.0,NNE,8.1,-,N/A,,Clear,30,2013-07-17 23:15:00
4:55 PM,75.2,46.4,36,30.28,10.0,NE,4.6,-,N/A,,Scattered Clouds,40,2013-07-17 23:55:00
5:15 PM,75.2,48.2,38,30.28,10.0,NNE,8.1,-,N/A,,Mostly Cloudy,20,2013-07-18 00:15:00
5:35 PM,73.4,48.2,41,30.28,10.0,North,5.8,-,N/A,,Mostly Cloudy,360,2013-07-18 00:35:00
5:55 PM,73.4,48.2,41,30.28,10.0,North,5.8,-,N/A,,Mostly Cloudy,10,2013-07-18 00:55:00
6:15 PM,73.4,48.2,41,30.29,10.0,Calm,Calm,-,N/A,,Scattered Clouds,0,2013-07-18 01:15:00
6:35 PM,71.6,53.6,53,30.30,10.0,South,15.0,23.0,N/A,,Partly Cloudy,180,2013-07-18 01:35:00
6:55 PM,66.2,53.6,64,30.31,10.0,SSE,18.4,-,N/A,,Mostly Cloudy,160,2013-07-18 01:55:00
7:15 PM,64.4,53.6,68,30.32,10.0,South,15.0,-,N/A,,Scattered Clouds,170,2013-07-18 02:15:00
7:35 PM,64.4,53.6,68,30.32,10.0,South,12.7,-,N/A,,Partly Cloudy,170,2013-07-18 02:35:00
7:55 PM,62.6,55.4,77,30.32,10.0,South,11.5,-,N/A,,Clear,190,2013-07-18 02:55:00
8:15 PM,62.6,55.4,77,30.32,10.0,South,11.5,-,N/A,,Clear,180,2013-07-18 03:15:00
8:35 PM,60.8,53.6,77,30.33,10.0,SSE,6.9,-,N/A,,Clear,150,2013-07-18 03:35:00
8:55 PM,60.8,53.6,77,30.33,10.0,SSW,5.8,-,N/A,,Clear,210,2013-07-18 03:55:00
9:15 PM,59.0,53.6,82,30.35,10.0,SSW,6.9,-,N/A,,Partly Cloudy,210,2013-07-18 04:15:00
9:35 PM,59.0,53.6,82,30.35,10.0,South,9.2,-,N/A,,Scattered Clouds,190,2013-07-18 04:35:00
9:55 PM,59.0,53.6,82,30.36,10.0,South,5.8,-,N/A,,Mostly Cloudy,190,2013-07-18 04:55:00
10:15 PM,60.8,53.6,77,30.35,10.0,South,4.6,-,N/A,,Mostly Cloudy,190,2013-07-18 05:15:00
10:35 PM,60.8,53.6,77,30.34,10.0,South,5.8,-,N/A,,Overcast,180,2013-07-18 05:35:00
10:55 PM,60.8,53.6,77,30.35,10.0,East,6.9,17.3,N/A,,Mostly Cloudy,80,2013-07-18 05:55:00
11:35 PM,62.6,53.6,72,30.34,10.0,Calm,Calm,-,N/A,,Partly Cloudy,0,2013-07-18 06:35:00
11:55 PM,60.8,53.6,77,30.34,10.0,South,5.8,-,N/A,,Partly Cloudy,180,2013-07-18 06:55:00